FW2087 Weather Reports


Display with metric or nautical units.
time (UTC)temp
F
wind
direction
speed
MPH
gust
MPH
rain 1hr
in
rain 24hr
in
rain mn
in
humidity
%
barometer
mb
20260906110012 71 115 0.0 0.0 0.00 0.00 0.00 99 1012.0
20260906104536 71 115 0.0 0.0 0.00 0.00 0.00 99 1011.9
20260906103051 72 115 0.0 0.0 0.00 0.00 0.00 99 1012.0
20260906101508 72 115 0.0 0.0 0.00 0.00 0.00 99 1011.8
20260906100030 72 115 0.0 0.0 0.00 0.00 0.00 100 1011.8
20260906094607 73 115 0.0 0.0 0.00 0.00 0.00 100 1011.7
20260906093117 72 115 0.0 1.0 0.00 0.00 0.00 99 1011.7
20260906091516 72 172 0.0 0.0 0.00 0.00 0.00 99 1011.8
20260906090021 73 172 0.0 0.0 0.00 0.00 0.00 99 1011.7
20260906084552 73 206 0.0 0.0 0.00 0.00 0.00 99 1011.6
20260906083033 73 206 0.0 0.0 0.00 0.00 0.00 99 1011.8
20260906081536 74 206 0.0 1.0 0.00 0.00 0.00 98 1011.7
20260906080040 74 191 0.0 1.0 0.00 0.00 0.00 99 1011.7
20260906074559 73 205 0.0 2.0 0.00 0.00 0.00 99 1012.2
20260906073004 73 213 0.0 2.0 0.00 0.00 0.00 99 1012.1
20260906071522 73 120 0.0 0.0 0.00 0.00 0.00 99 1011.8
20260906070042 73 120 0.0 0.0 0.00 0.00 0.00 99 1011.4
20260906064603 73 120 0.0 0.0 0.00 0.00 0.00 99 1011.5
20260906063026 73 204 0.0 0.0 0.00 0.00 0.00 99 1011.8
20260906061551 73 119 0.0 0.0 0.00 0.00 0.00 99 1011.5
20260906060005 73 119 0.0 0.0 0.00 0.00 0.00 99 1011.6
20260906054544 73 119 0.0 0.0 0.00 0.00 0.00 98 1011.8
20260906053104 73 119 0.0 0.0 0.00 0.00 0.00 98 1012.0
20260906051505 73 120 0.0 0.0 0.00 0.00 0.00 98 1012.3
20260906050030 73 119 0.0 0.0 0.00 0.00 0.00 98 1012.2
20260906044548 73 119 0.0 0.0 0.00 0.00 0.00 98 1012.3
20260906043101 73 119 0.0 0.0 0.00 0.00 0.00 98 1012.5
20260906041515 74 119 0.0 0.0 0.00 0.00 0.00 98 1012.6
20260906040034 74 123 0.0 0.0 0.00 0.00 0.00 98 1012.5
20260906011553 77 212 0.0 1.0 0.00 0.00 0.00 93 1011.3
20260906010058 78 212 0.0 0.0 0.00 0.00 0.00 91 1011.4
20260906003056 79 214 0.0 0.0 0.00 0.00 0.00 89 1011.5
20260905234530 81 214 0.0 0.0 0.00 0.00 0.00 85 1011.2
20260905233031 82 214 0.0 0.0 0.00 0.00 0.00 83 1011.2
20260905231552 83 214 0.0 1.0 0.00 0.00 0.00 83 1011.4
20260905223053 84 212 0.0 2.0 0.00 0.00 0.00 80 1011.1
20260905221513 83 308 0.0 3.0 0.00 0.00 0.00 80 1011.3
20260905214537 82 207 0.0 0.0 0.00 0.00 0.00 82 1011.4
20260905213053 81 212 0.0 1.0 0.00 0.00 0.00 84 1011.5
20260905211607 81 193 0.0 1.0 0.00 0.00 0.00 84 1011.7
20260905210013 82 202 0.0 2.0 0.00 0.00 0.00 85 1011.7
20260905204526 82 238 0.0 0.0 0.00 0.00 0.00 82 1011.7
20260905203051 82 239 0.0 0.0 0.00 0.00 0.00 81 1011.9
20260905201605 83 229 0.0 1.0 0.00 0.00 0.00 81 1012.4
20260905200007 83 297 0.0 1.0 0.00 0.00 0.00 80 1012.1
20260905194541 83 8 0.0 1.0 0.00 0.00 0.00 79 1012.3
20260905193039 83 8 0.0 0.0 0.00 0.00 0.00 79 1012.5
20260905191559 84 85 0.0 1.0 0.00 0.00 0.00 75 1012.5
20260905190100 85 85 0.0 1.0 0.00 0.00 0.00 74 1012.7
20260905184551 86 85 0.0 2.0 0.00 0.00 0.00 75 1012.7
20260905183039 88 171 0.0 4.0 0.00 0.00 0.00 71 1012.3
20260905181542 90 28 1.0 5.0 0.00 0.00 0.00 68 1012.3
20260905180055 95 75 0.0 2.0 0.00 0.00 0.00 62 1012.5
20260905174551 96 100 0.0 2.0 0.00 0.00 0.00 63 1012.4
20260905173044 95 27 0.0 4.0 0.00 0.00 0.00 65 1012.5
20260905171532 93 103 2.0 6.0 0.00 0.00 0.00 66 1012.6
20260905170108 94 119 1.0 3.0 0.00 0.00 0.00 66 1012.8
20260905164503 92 106 0.0 3.0 0.00 0.00 0.00 71 1013.3
20260905163035 91 127 0.0 1.0 0.00 0.00 0.00 72 1013.5
20260905161538 91 121 0.0 2.0 0.00 0.00 0.00 72 1013.6
20260905160055 90 108 0.0 3.0 0.00 0.00 0.00 74 1013.6
20260905154559 89 209 1.0 4.0 0.00 0.00 0.00 75 1013.6
20260905153100 88 120 2.0 4.0 0.00 0.00 0.00 76 1013.8
20260905151501 87 130 0.0 5.0 0.00 0.00 0.00 79 1013.9
20260905144551 83 172 0.0 2.0 0.00 0.00 0.00 84 1014.2
20260905143048 82 161 0.0 0.0 0.00 0.00 0.00 85 1014.2
20260905141543 82 117 0.0 4.0 0.00 0.00 0.00 86 1014.3
20260905140038 81 222 0.0 1.0 0.00 0.00 0.00 87 1014.4
20260905134532 80 222 0.0 3.0 0.00 0.00 0.00 88 1014.5
20260905133058 79 141 0.0 2.0 0.00 0.00 0.00 91 1014.8
20260905131558 78 229 0.0 2.0 0.00 0.00 0.00 93 1014.7
20260905130002 77 112 0.0 3.0 0.00 0.00 0.00 96 1014.7
20260905124510 76 144 0.0 1.0 0.00 0.00 0.00 100 1014.8
20260905123022 74 194 0.0 0.0 0.00 0.00 0.00 100 1014.8
20260905121542 73 194 0.0 0.0 0.00 0.00 0.00 100 1014.8
20260905120044 73 194 0.0 0.0 0.00 0.00 0.00 100 1014.6
20260905114549 72 195 0.0 0.0 0.00 0.00 0.00 100 1014.2
20260905113036 72 195 0.0 0.0 0.00 0.00 0.00 100 1013.9
20260905111535 72 195 0.0 0.0 0.00 0.00 0.00 99 1013.9